Oak Island, MN

2:28 AM CDT on September 28, 2016 (GMT -0500)
Flag Island

Weather History for KFGN - April, 2013

Change the Weather History Date:

Friday, April 26, 2013

  Actual Average Record
Temperature  
Mean Temperature 42 °F -  
Max Temperature 57 °F 47 °F 69 °F (1999)
Min Temperature 28 °F 30 °F 19 °F (2002)
Degree Days  
Heating Degree Days 22    
Moisture  
Dew Point 31 °F    
Average Humidity 71    
Maximum Humidity 93    
Minimum Humidity 33    
Precipitation  
Precipitation 0.00 in - - ()
Sea Level Pressure  
Sea Level Pressure 29.94 in    
Wind  
Wind Speed 9 mph (South)    
Max Wind Speed 15 mph    
Max Gust Speed 18 mph    
Visibility 10 miles    
Events      
Averages and records for this station are not official NWS values.
T = Trace of Precipitation, MM = Missing Value Source: NWS Daily Summary

Daily Weather History Graph

Daily Weather History Graph

Search for Another Location

Airport or City:

Trip Planner

Search our weather history database for the weather conditions in past years. The results will help you decide how hot, cold, wet, or windy it might be!

Date:

Astronomy

Apr. 26, 2013 Rise Set
Actual Time 6:06 AM CDT 8:29 PM CDT
Civil Twilight 5:31 AM CDT 9:04 PM CDT
Nautical Twilight 4:46 AM CDT 9:49 PM CDT
Astronomical Twilight 3:56 AM CDT 10:40 PM CDT
Moon 10:00 PM CDT (4/26) 6:29 AM CDT (4/26)
Length of Visible Light 15h 33m
Length of Day
14h 23m
Full, 99% of the Moon is Illuminated
Apr 26
Full
May 2
Last Quarter
May 9
New
May 17
First Quarter
May 24
Full

Hourly Weather History & Observations

Time (CDT) Temp. Windchill Dew Point Humidity Pressure Visibility Wind Dir Wind Speed Gust Speed Precip Events Conditions
12:14 AM 32.0 °F 22.1 °F 26.6 °F 80% 29.91 in 10.0 mi SSE 13.8 mph - N/A   Mostly Cloudy
12:33 AM 32.0 °F 24.2 °F 26.6 °F 80% 29.92 in 10.0 mi South 9.2 mph - N/A   Mostly Cloudy
12:53 AM 32.0 °F 23.0 °F 28.4 °F 87% 29.91 in 10.0 mi SSE 11.5 mph - N/A   Overcast
1:14 AM 33.8 °F 24.8 °F 28.4 °F 81% 29.90 in 10.0 mi SSE 12.7 mph - N/A   Overcast
1:33 AM 33.8 °F 23.9 °F 28.4 °F 81% 29.89 in 10.0 mi SSE 15.0 mph - N/A   Overcast
1:54 AM 33.8 °F 26.4 °F 28.4 °F 81% 29.90 in 10.0 mi South 9.2 mph - N/A   Overcast
2:13 AM 32.0 °F 24.2 °F 28.4 °F 87% 29.89 in 10.0 mi South 9.2 mph - N/A   Overcast
2:34 AM 32.0 °F 24.8 °F 28.4 °F 87% 29.88 in 10.0 mi South 8.1 mph - N/A   Overcast
2:53 AM 32.0 °F 26.4 °F 28.4 °F 87% 29.87 in 10.0 mi South 5.8 mph - N/A   Overcast
3:14 AM 32.0 °F 24.8 °F 28.4 °F 87% 29.87 in 10.0 mi SSE 8.1 mph - N/A   Overcast
3:33 AM 32.0 °F 24.2 °F 28.4 °F 87% 29.86 in 10.0 mi SSE 9.2 mph - N/A   Scattered Clouds
3:54 AM 30.2 °F 23.4 °F 26.6 °F 86% 29.86 in 10.0 mi SSE 6.9 mph - N/A   Clear
4:13 AM 30.2 °F 22.6 °F 26.6 °F 86% 29.86 in 10.0 mi SSE 8.1 mph - N/A   Mostly Cloudy
4:33 AM 30.2 °F 24.3 °F 26.6 °F 86% 29.86 in 10.0 mi SSE 5.8 mph - N/A   Mostly Cloudy
4:54 AM 30.2 °F 25.4 °F 26.6 °F 86% 29.87 in 10.0 mi SSE 4.6 mph - N/A   Mostly Cloudy
5:13 AM 30.2 °F 25.4 °F 26.6 °F 86% 29.87 in 10.0 mi SSE 4.6 mph - N/A   Mostly Cloudy
5:33 AM 28.4 °F 21.2 °F 24.8 °F 86% 29.87 in 10.0 mi SSE 6.9 mph - N/A   Scattered Clouds
5:53 AM 28.4 °F 22.2 °F 24.8 °F 86% 29.88 in 10.0 mi SSE 5.8 mph - N/A   Clear
6:13 AM 28.4 °F 22.2 °F 24.8 °F 86% 29.88 in 10.0 mi SSE 5.8 mph - N/A   Clear
6:53 AM 28.4 °F 23.3 °F 26.6 °F 93% 29.90 in 10.0 mi SE 4.6 mph - N/A   Clear
7:13 AM 30.2 °F 23.4 °F 26.6 °F 86% 29.90 in 10.0 mi SE 6.9 mph - N/A   Clear
7:34 AM 30.2 °F 22.6 °F 26.6 °F 86% 29.90 in 10.0 mi SE 8.1 mph - N/A   Clear
7:53 AM 32.0 °F 24.2 °F 26.6 °F 80% 29.91 in 10.0 mi SSE 9.2 mph - N/A   Clear
8:13 AM 30.2 °F 22.6 °F 26.6 °F 86% 29.91 in 10.0 mi SSE 8.1 mph - N/A   Clear
8:34 AM 30.2 °F 22.6 °F 26.6 °F 86% 29.91 in 10.0 mi SSE 8.1 mph - N/A   Clear
8:53 AM 32.0 °F 24.8 °F 28.4 °F 87% 29.91 in 10.0 mi SSE 8.1 mph - N/A   Scattered Clouds
9:13 AM 33.8 °F 25.8 °F 28.4 °F 81% 29.91 in 10.0 mi SSE 10.4 mph - N/A   Mostly Cloudy
9:34 AM 33.8 °F 25.3 °F 28.4 °F 81% 29.91 in 10.0 mi SSE 11.5 mph - N/A   Overcast
9:53 AM 33.8 °F 25.3 °F 30.2 °F 87% 29.91 in 10.0 mi SSE 11.5 mph - N/A   Overcast
10:13 AM 33.8 °F 25.3 °F 30.2 °F 87% 29.91 in 10.0 mi SSE 11.5 mph - N/A   Overcast
10:34 AM 35.6 °F 27.1 °F 30.2 °F 81% 29.92 in 10.0 mi SSE 12.7 mph - N/A   Scattered Clouds
10:53 AM 35.6 °F 27.5 °F 30.2 °F 81% 29.93 in 10.0 mi SE 11.5 mph - N/A   Clear
11:13 AM 35.6 °F 27.5 °F 32.0 °F 87% 29.92 in 10.0 mi SSE 11.5 mph - N/A   Clear
11:34 AM 35.6 °F 27.1 °F 32.0 °F 87% 29.93 in 10.0 mi SSE 12.7 mph - N/A   Clear
11:53 AM 35.6 °F 27.5 °F 32.0 °F 87% 29.93 in 10.0 mi SSE 11.5 mph - N/A   Clear
12:14 PM 37.4 °F 30.3 °F 32.0 °F 81% 29.93 in 10.0 mi SSE 10.4 mph - N/A   Clear
12:34 PM 37.4 °F 30.8 °F 32.0 °F 81% 29.94 in 10.0 mi South 9.2 mph - N/A   Clear
12:53 PM 37.4 °F 30.8 °F 33.8 °F 87% 29.94 in 10.0 mi SSE 9.2 mph - N/A   Clear
1:14 PM 39.2 °F 35.0 °F 33.8 °F 81% 29.93 in 10.0 mi SE 5.8 mph - N/A   Clear
1:34 PM 41.0 °F 37.1 °F 33.8 °F 76% 29.94 in 10.0 mi SE 5.8 mph - N/A   Clear
1:53 PM 42.8 °F 38.6 °F 33.8 °F 70% 29.94 in 10.0 mi SE 6.9 mph - N/A   Clear
2:14 PM 51.8 °F - 32.0 °F 47% 29.94 in 10.0 mi Calm Calm - N/A   Clear
2:34 PM 50.0 °F - 33.8 °F 54% 29.94 in 10.0 mi Calm Calm - N/A   Clear
2:53 PM 55.4 °F - 30.2 °F 38% 29.94 in 10.0 mi WNW 3.5 mph - N/A   Clear
3:14 PM 53.6 °F - 30.2 °F 41% 29.95 in 10.0 mi Calm Calm - N/A   Clear
3:34 PM 53.6 °F - 30.2 °F 41% 29.95 in 10.0 mi Calm Calm - N/A   Clear
3:53 PM 55.4 °F - 30.2 °F 38% 29.95 in 10.0 mi WNW 5.8 mph - N/A   Clear
4:13 PM 53.6 °F - 30.2 °F 41% 29.96 in 10.0 mi Calm Calm - N/A   Clear
4:34 PM 55.4 °F - 28.4 °F 36% 29.96 in 10.0 mi NW 10.4 mph 17.3 mph N/A   Clear
4:53 PM 57.2 °F - 28.4 °F 33% 29.96 in 10.0 mi NW 12.7 mph 18.4 mph N/A   Clear
5:13 PM 55.4 °F - 28.4 °F 36% 29.97 in 10.0 mi NW 11.5 mph - N/A   Clear
5:34 PM 57.2 °F - 28.4 °F 33% 29.97 in 10.0 mi WNW 10.4 mph - N/A   Clear
5:53 PM 53.6 °F - 30.2 °F 41% 29.98 in 10.0 mi SSE 3.5 mph - N/A   Clear
6:13 PM 51.8 °F - 33.8 °F 50% 29.98 in 10.0 mi SSE 5.8 mph - N/A   Clear
6:34 PM 51.8 °F - 32.0 °F 47% 29.98 in 10.0 mi SSW 3.5 mph - N/A   Clear
6:53 PM 51.8 °F - 33.8 °F 50% 29.98 in 10.0 mi South 8.1 mph - N/A   Clear
7:13 PM 50.0 °F - 33.8 °F 54% 29.99 in 10.0 mi SSW 9.2 mph - N/A   Clear
7:34 PM 46.4 °F 42.4 °F 33.8 °F 62% 29.99 in 10.0 mi SSW 8.1 mph - N/A   Clear
7:53 PM 51.8 °F - 35.6 °F 54% 29.99 in 10.0 mi SSW 11.5 mph - N/A   Clear
8:13 PM 51.8 °F - 37.4 °F 58% 29.99 in 10.0 mi SW 11.5 mph - N/A   Clear
8:34 PM 53.6 °F - 37.4 °F 54% 30.00 in 10.0 mi SW 10.4 mph - N/A   Clear
8:53 PM 51.8 °F - 37.4 °F 58% 30.00 in 10.0 mi SW 11.5 mph - N/A   Clear
9:13 PM 50.0 °F - 37.4 °F 62% 30.01 in 10.0 mi SW 9.2 mph - N/A   Clear
9:34 PM 51.8 °F - 37.4 °F 58% 30.01 in 10.0 mi SW 11.5 mph - N/A   Clear
9:53 PM 50.0 °F - 37.4 °F 62% 30.01 in 10.0 mi SW 8.1 mph - N/A   Clear
10:13 PM 48.2 °F - 37.4 °F 66% 30.01 in 10.0 mi SSW 6.9 mph - N/A   Clear
10:34 PM 46.4 °F 45.2 °F 37.4 °F 71% 30.01 in 10.0 mi SSE 3.5 mph - N/A   Clear
10:53 PM 44.6 °F 41.4 °F 37.4 °F 76% 30.01 in 10.0 mi SSE 5.8 mph - N/A   Clear
11:13 PM 39.2 °F 34.2 °F 33.8 °F 81% 30.01 in 10.0 mi SE 6.9 mph - N/A   Clear
11:33 PM 37.4 °F 32.1 °F 33.8 °F 87% 30.01 in 10.0 mi SE 6.9 mph - N/A   Clear
11:53 PM 37.4 °F 32.1 °F 33.8 °F 87% 30.00 in 10.0 mi SSE 6.9 mph - N/A   Clear